Location: *
(57.8420°S, 159.8600°W)
Time: 05:10:30
(UTC+00:00)

ARIANE 5 R/B - Pass Details

Date: 18 May 2021
Orbit: 748 x 795 km, 98.7° (Epoch: 20 June)

Event Time Altitude Azimuth Distance (km) Brightness Sun altitude
Rises 03:00:32 0° 165° (SSE) 3,273 5.3 -4.6°
Reaches altitude 10° 03:02:54 10° 170° (S) 2,347 4.7 -4.9°
Maximum altitude 03:07:52 48° 242° (WSW) 1,021 3.5 -5.5°
Drops below altitude 10° 03:12:51 10° 315° (NW) 2,354 6.5 -6.1°
Sets 03:15:14 0° 320° (NW) 3,283 7.2 -6.4°
